| time (UTC) | temp C | wind direction | speed KPH | gust KPH | rain 1hr cm | rain 24hr cm | rain mn cm | humidity % | barometer mb |
| 20260506015159 | 0 | 130 | 0.0 | 4.8 | 0.00 | 0.00 | 0.00 | 90 | 1011.5 |
| 20260506014141 | 1 | 129 | 1.6 | 4.8 | 0.00 | 0.00 | 0.00 | 90 | 1011.4 |
| 20260506013155 | 1 | 128 | 0.0 | 4.8 | 0.00 | 0.00 | 0.00 | 90 | 1011.4 |
| 20260506012135 | 1 | 113 | 4.8 | 11.3 | 0.00 | 0.00 | 0.00 | 91 | 1011.4 |
| 20260506011139 | 1 | 105 | 8.0 | 12.9 | 0.00 | 0.00 | 0.00 | 93 | 1011.4 |
| 20260506010139 | 1 | 108 | 4.8 | 9.7 | 0.00 | 0.00 | 0.00 | 91 | 1011.4 |
| 20260506005149 | 1 | 121 | 0.0 | 3.2 | 0.00 | 0.00 | 0.00 | 91 | 1011.4 |
| 20260506004147 | 1 | 127 | 1.6 | 6.4 | 0.00 | 0.00 | 0.00 | 90 | 1011.4 |
| 20260506003201 | 1 | 113 | 3.2 | 6.4 | 0.00 | 0.00 | 0.00 | 90 | 1011.4 |
| 20260506002203 | 1 | 108 | 3.2 | 4.8 | 0.00 | 0.00 | 0.00 | 89 | 1011.5 |
| 20260506001143 | 1 | 126 | 0.0 | 3.2 | 0.00 | 0.00 | 0.00 | 89 | 1011.4 |
| 20260506000130 | 1 | 126 | 0.0 | 8.0 | 0.00 | 0.00 | 0.00 | 89 | 1011.4 |
| 20260505235132 | 1 | 153 | 4.8 | 11.3 | 0.00 | 0.00 | 0.00 | 89 | 1011.4 |
| 20260505234152 | 1 | 94 | 1.6 | 6.4 | 0.00 | 0.00 | 0.00 | 88 | 1011.4 |
| 20260505233143 | 1 | 130 | 6.4 | 11.3 | 0.00 | 0.00 | 0.00 | 88 | 1011.4 |
| 20260505232134 | 1 | 120 | 4.8 | 6.4 | 0.00 | 0.00 | 0.00 | 87 | 1011.4 |
| 20260505231152 | 1 | 102 | 0.0 | 4.8 | 0.00 | 0.00 | 0.00 | 87 | 1011.4 |
| 20260505230140 | 1 | 102 | 0.0 | 3.2 | 0.00 | 0.00 | 0.00 | 86 | 1011.6 |
| 20260505225134 | 1 | 102 | 1.6 | 4.8 | 0.00 | 0.00 | 0.00 | 86 | 1011.7 |
| 20260505224135 | 1 | 82 | 1.6 | 8.0 | 0.00 | 0.00 | 0.00 | 85 | 1011.7 |
| 20260505223209 | 1 | 63 | 6.4 | 8.0 | 0.00 | 0.00 | 0.00 | 85 | 1011.7 |
| 20260505222139 | 1 | 69 | 0.0 | 0.0 | 0.00 | 0.00 | 0.00 | 84 | 1011.7 |
| 20260505221213 | 1 | 69 | 0.0 | 3.2 | 0.00 | 0.00 | 0.00 | 84 | 1011.7 |
| 20260505220132 | 1 | 69 | 3.2 | 4.8 | 0.00 | 0.00 | 0.00 | 83 | 1011.8 |
| 20260505215154 | 1 | 91 | 3.2 | 4.8 | 0.00 | 0.00 | 0.00 | 82 | 1011.9 |
| 20260505214205 | 2 | 49 | 1.6 | 4.8 | 0.00 | 0.00 | 0.00 | 82 | 1011.9 |
| 20260505213206 | 2 | 49 | 0.0 | 4.8 | 0.00 | 0.00 | 0.00 | 82 | 1011.9 |
| 20260505212133 | 2 | 49 | 3.2 | 6.4 | 0.00 | 0.00 | 0.00 | 81 | 1011.8 |
| 20260505211156 | 2 | 49 | 6.4 | 8.0 | 0.00 | 0.00 | 0.00 | 81 | 1011.8 |
| 20260505210131 | 2 | 157 | 0.0 | 0.0 | 0.00 | 0.00 | 0.00 | 80 | 1011.9 |
| 20260505205149 | 2 | 159 | 0.0 | 4.8 | 0.00 | 0.00 | 0.00 | 80 | 1011.9 |
| 20260505204142 | 2 | 162 | 4.8 | 6.4 | 0.00 | 0.00 | 0.00 | 79 | 1011.8 |
| 20260505203144 | 3 | 275 | 0.0 | 0.0 | 0.00 | 0.00 | 0.00 | 79 | 1011.7 |
| 20260505202153 | 3 | 275 | 0.0 | 3.2 | 0.00 | 0.00 | 0.00 | 78 | 1011.8 |
| 20260505201130 | 3 | 279 | 3.2 | 4.8 | 0.00 | 0.00 | 0.00 | 77 | 1011.7 |
| 20260505200136 | 3 | 311 | 1.6 | 3.2 | 0.00 | 0.00 | 0.00 | 77 | 1011.6 |
| 20260505195159 | 3 | 304 | 1.6 | 3.2 | 0.00 | 0.00 | 0.00 | 76 | 1011.6 |
| 20260505194129 | 4 | 285 | 1.6 | 3.2 | 0.00 | 0.00 | 0.00 | 74 | 1011.7 |
| 20260505193149 | 5 | 290 | 1.6 | 8.0 | 0.00 | 0.00 | 0.00 | 72 | 1011.5 |
| 20260505192143 | 5 | 289 | 4.8 | 6.4 | 0.00 | 0.00 | 0.00 | 70 | 1011.5 |
| 20260505191138 | 6 | 310 | 3.2 | 6.4 | 0.00 | 0.00 | 0.00 | 68 | 1011.4 |
| 20260505190202 | 6 | 314 | 3.2 | 8.0 | 0.00 | 0.00 | 0.00 | 65 | 1011.3 |
| 20260505185133 | 7 | 281 | 8.0 | 11.3 | 0.00 | 0.00 | 0.00 | 62 | 1011.3 |
| 20260505184155 | 7 | 294 | 4.8 | 11.3 | 0.00 | 0.00 | 0.00 | 61 | 1011.3 |
| 20260505183129 | 8 | 286 | 6.4 | 8.0 | 0.00 | 0.00 | 0.00 | 59 | 1011.2 |
| 20260505182140 | 8 | 302 | 8.0 | 14.5 | 0.00 | 0.00 | 0.00 | 58 | 1011.2 |
| 20260505181204 | 8 | 290 | 11.3 | 16.1 | 0.00 | 0.00 | 0.00 | 61 | 1011.2 |
| 20260505180136 | 8 | 272 | 11.3 | 16.1 | 0.00 | 0.00 | 0.00 | 61 | 1011.2 |
| 20260505175130 | 8 | 292 | 11.3 | 16.1 | 0.00 | 0.00 | 0.00 | 56 | 1011.2 |
| 20260505174133 | 9 | 280 | 11.3 | 16.1 | 0.00 | 0.00 | 0.00 | 57 | 1011.1 |
| 20260505173127 | 9 | 285 | 12.9 | 16.1 | 0.00 | 0.00 | 0.00 | 56 | 1011.2 |
| 20260505172150 | 9 | 254 | 11.3 | 16.1 | 0.00 | 0.00 | 0.00 | 58 | 1011.2 |
| 20260505171144 | 9 | 308 | 8.0 | 17.7 | 0.00 | 0.00 | 0.00 | 60 | 1011.1 |
| 20260505170138 | 9 | 273 | 12.9 | 17.7 | 0.00 | 0.00 | 0.00 | 54 | 1011.1 |
| 20260505165131 | 9 | 250 | 14.5 | 19.3 | 0.00 | 0.00 | 0.00 | 59 | 1011.1 |
| 20260505164210 | 10 | 271 | 12.9 | 19.3 | 0.00 | 0.00 | 0.00 | 57 | 1011.1 |
| 20260505163202 | 9 | 248 | 14.5 | 20.9 | 0.00 | 0.00 | 0.00 | 59 | 1011.0 |
| 20260505162146 | 10 | 252 | 11.3 | 20.9 | 0.00 | 0.00 | 0.00 | 54 | 1011.0 |
| 20260505161142 | 10 | 254 | 14.5 | 20.9 | 0.00 | 0.00 | 0.00 | 55 | 1011.1 |
| 20260505160137 | 10 | 272 | 12.9 | 22.5 | 0.00 | 0.00 | 0.00 | 54 | 1011.2 |
| 20260505153127 | 10 | 284 | 17.7 | 20.9 | 0.00 | 0.00 | 0.00 | 52 | 1011.2 |
| 20260505152143 | 10 | 273 | 14.5 | 19.3 | 0.00 | 0.00 | 0.00 | 53 | 1011.2 |
| 20260505151133 | 10 | 275 | 9.7 | 20.9 | 0.00 | 0.00 | 0.00 | 51 | 1011.1 |
| 20260505150151 | 9 | 283 | 16.1 | 22.5 | 0.00 | 0.00 | 0.00 | 55 | 1011.2 |
| 20260505140146 | 9 | 284 | 14.5 | 24.1 | 0.00 | 0.00 | 0.00 | 52 | 1011.3 |
| 20260505130154 | 9 | 287 | 17.7 | 32.2 | 0.00 | 0.00 | 0.00 | 52 | 1011.2 |
| 20260505124146 | 9 | 290 | 19.3 | 32.2 | 0.00 | 0.00 | 0.00 | 53 | 1011.4 |
| 20260505123140 | 9 | 297 | 19.3 | 29.0 | 0.00 | 0.00 | 0.00 | 58 | 1011.4 |
| 20260505122130 | 9 | 297 | 11.3 | 27.4 | 0.00 | 0.00 | 0.00 | 58 | 1011.4 |
| 20260505121152 | 9 | 329 | 19.3 | 32.2 | 0.00 | 0.00 | 0.00 | 56 | 1011.4 |
| 20260505120127 | 9 | 328 | 16.1 | 25.7 | 0.00 | 0.00 | 0.00 | 59 | 1011.3 |
| 20260505115140 | 9 | 286 | 17.7 | 29.0 | 0.00 | 0.00 | 0.00 | 60 | 1011.3 |
| 20260505114131 | 9 | 276 | 16.1 | 32.2 | 0.00 | 0.00 | 0.00 | 59 | 1011.4 |
| 20260505113134 | 9 | 240 | 19.3 | 27.4 | 0.00 | 0.00 | 0.00 | 59 | 1011.3 |
| 20260505112127 | 9 | 280 | 16.1 | 27.4 | 0.00 | 0.00 | 0.00 | 60 | 1011.3 |
| 20260505111150 | 9 | 284 | 16.1 | 27.4 | 0.00 | 0.00 | 0.00 | 59 | 1011.3 |
| 20260505110142 | 9 | 294 | 17.7 | 25.7 | 0.00 | 0.00 | 0.00 | 56 | 1011.3 |
| 20260505102137 | 9 | 303 | 12.9 | 27.4 | 0.00 | 0.00 | 0.00 | 55 | 1011.1 |
| 20260505101156 | 9 | 271 | 12.9 | 27.4 | 0.00 | 0.00 | 0.00 | 59 | 1011.2 |
| 20260505100128 | 8 | 284 | 16.1 | 27.4 | 0.00 | 0.00 | 0.00 | 57 | 1011.1 |
| 20260505095127 | 8 | 269 | 17.7 | 32.2 | 0.00 | 0.00 | 0.00 | 59 | 1011.2 |
| 20260505094139 | 8 | 279 | 20.9 | 29.0 | 0.00 | 0.00 | 0.00 | 57 | 1011.3 |
| 20260505093132 | 8 | 278 | 14.5 | 24.1 | 0.00 | 0.00 | 0.00 | 55 | 1011.0 |
| 20260505092132 | 8 | 252 | 16.1 | 25.7 | 0.00 | 0.00 | 0.00 | 57 | 1011.0 |
| 20260505091145 | 8 | 315 | 8.0 | 27.4 | 0.00 | 0.00 | 0.00 | 55 | 1011.0 |
| 20260505090137 | 8 | 307 | 22.5 | 29.0 | 0.00 | 0.00 | 0.00 | 55 | 1011.1 |
| 20260505085130 | 8 | 267 | 19.3 | 27.4 | 0.00 | 0.00 | 0.00 | 53 | 1010.9 |
| 20260505084152 | 8 | 290 | 12.9 | 24.1 | 0.00 | 0.00 | 0.00 | 54 | 1010.8 |
| 20260505083204 | 8 | 281 | 14.5 | 24.1 | 0.00 | 0.00 | 0.00 | 53 | 1010.6 |
| 20260505082141 | 8 | 308 | 11.3 | 24.1 | 0.00 | 0.00 | 0.00 | 54 | 1010.4 |
| 20260505081127 | 8 | 312 | 12.9 | 25.7 | 0.00 | 0.00 | 0.00 | 53 | 1010.4 |
| 20260505080145 | 8 | 275 | 12.9 | 25.7 | 0.00 | 0.00 | 0.00 | 55 | 1010.4 |
| 20260505075204 | 8 | 290 | 16.1 | 25.7 | 0.00 | 0.00 | 0.00 | 56 | 1010.3 |
| 20260505074134 | 8 | 348 | 8.0 | 29.0 | 0.00 | 0.00 | 0.00 | 52 | 1010.3 |
| 20260505073145 | 8 | 317 | 9.7 | 30.6 | 0.00 | 0.00 | 0.00 | 54 | 1010.3 |
| 20260505072147 | 8 | 297 | 12.9 | 30.6 | 0.00 | 0.00 | 0.00 | 52 | 1010.3 |
| 20260505071155 | 8 | 303 | 14.5 | 25.7 | 0.00 | 0.00 | 0.00 | 55 | 1010.2 |
| 20260505070138 | 8 | 275 | 8.0 | 17.7 | 0.00 | 0.00 | 0.00 | 54 | 1010.1 |
| 20260505065152 | 8 | 325 | 9.7 | 17.7 | 0.00 | 0.00 | 0.00 | 55 | 1010.1 |
| 20260505064134 | 8 | 325 | 9.7 | 16.1 | 0.00 | 0.00 | 0.00 | 55 | 1010.0 |
| 20260505063145 | 8 | 325 | 8.0 | 20.9 | 0.00 | 0.00 | 0.00 | 54 | 1009.9 |
| 20260505062133 | 8 | 339 | 9.7 | 17.7 | 0.00 | 0.00 | 0.00 | 57 | 1009.9 |
| 20260505061132 | 7 | 303 | 8.0 | 17.7 | 0.00 | 0.00 | 0.00 | 56 | 1009.9 |
| 20260505060144 | 7 | 313 | 12.9 | 24.1 | 0.00 | 0.00 | 0.00 | 58 | 1009.9 |
| 20260505055147 | 7 | 333 | 14.5 | 22.5 | 0.00 | 0.00 | 0.00 | 59 | 1009.8 |
| 20260505054136 | 8 | 284 | 6.4 | 14.5 | 0.00 | 0.00 | 0.00 | 60 | 1009.8 |
| 20260505053129 | 7 | 17 | 0.0 | 9.7 | 0.00 | 0.00 | 0.00 | 61 | 1009.7 |
| 20260505052149 | 7 | 15 | 1.6 | 8.0 | 0.00 | 0.00 | 0.00 | 62 | 1009.6 |
| 20260505051140 | 7 | 328 | 0.0 | 12.9 | 0.00 | 0.00 | 0.00 | 64 | 1009.5 |
| 20260505050126 | 6 | 33 | 3.2 | 16.1 | 0.00 | 0.00 | 0.00 | 73 | 1009.4 |
| 20260505041141 | 4 | 5 | 3.2 | 8.0 | 0.00 | 0.00 | 0.00 | 77 | 1009.1 |
| 20260505040140 | 5 | 19 | 0.0 | 4.8 | 0.00 | 0.00 | 0.00 | 75 | 1009.0 |
| 20260505035133 | 5 | 9 | 3.2 | 6.4 | 0.00 | 0.00 | 0.00 | 73 | 1008.9 |
| 20260505034145 | 6 | 355 | 1.6 | 11.3 | 0.00 | 0.00 | 0.00 | 73 | 1008.8 |
| 20260505033148 | 6 | 322 | 3.2 | 8.0 | 0.00 | 0.00 | 0.00 | 73 | 1008.8 |
| 20260505032133 | 6 | 338 | 4.8 | 12.9 | 0.00 | 0.00 | 0.00 | 73 | 1008.6 |
| 20260505031153 | 6 | 323 | 4.8 | 14.5 | 0.00 | 0.00 | 0.00 | 73 | 1008.6 |
| 20260505030147 | 6 | 317 | 6.4 | 14.5 | 0.00 | 0.00 | 0.00 | 73 | 1008.5 |
| 20260505025134 | 6 | 327 | 6.4 | 19.3 | 0.00 | 0.00 | 0.00 | 73 | 1008.4 |
| 20260505024155 | 6 | 319 | 8.0 | 16.1 | 0.00 | 0.00 | 0.00 | 74 | 1008.4 |
| 20260505023126 | 7 | 9 | 8.0 | 19.3 | 0.00 | 0.00 | 0.00 | 74 | 1008.6 |
| 20260505022137 | 7 | 303 | 9.7 | 22.5 | 0.00 | 0.00 | 0.00 | 75 | 1008.5 |
| 20260505021128 | 7 | 297 | 11.3 | 27.4 | 0.00 | 0.00 | 0.00 | 75 | 1008.5 |
| 20260505020200 | 7 | 325 | 19.3 | 29.0 | 0.00 | 0.00 | 0.00 | 76 | 1008.4 |